Vorticity
nan nan nan nan nan nan nan nan nan nan nan nan nan nan nan nan nan nan nan nan nan nan nan nan nan nan nan nan nan nan nan nan nan nan nan nan nan nan nan nan nan nan nan nan nan nan nan nan nan
nan 3 4 7 9 8 5 9 12 8 9 7 4 7 3 6 11 9 9 8 6 6 7 8 6 4 5 4 5 7 4 2 5 10 7 6 6 6 5 6 6 6 5 5 4 4 4 4 nan
nan 5 6 8 11 7 6 10 11 11 6 0 2 6 9 8 8 6 10 8 6 7 8 8 7 4 3 1 3 5 4 5 6 5 6 5 7 5 5 6 5 5 5 5 4 3 4 5 nan
nan 8 8 8 7 8 12 10 7 1 -0 8 5 4 8 7 10 11 9 6 7 6 6 6 6 5 1 3 5 6 6 4 7 7 6 4 4 6 6 6 6 5 5 5 4 4 5 6 nan
nan 6 8 7 6 10 10 6 4 3 4 8 7 7 3 8 15 10 5 5 5 6 6 6 6 7 7 9 3 3 6 8 7 5 5 6 6 5 5 6 6 6 6 5 4 5 5 6 nan
nan 8 9 9 8 5 5 6 6 7 10 8 9 5 5 13 8 4 5 5 5 6 6 6 8 8 5 4 10 10 6 5 5 6 5 6 6 6 5 5 6 6 6 5 6 5 5 5 nan
nan 7 11 10 6 4 6 5 7 9 9 6 5 3 9 9 5 7 5 5 6 5 6 6 7 7 7 7 7 4 8 8 7 7 6 7 6 5 6 4 5 6 7 6 6 5 5 5 nan
nan 9 9 9 4 5 8 6 7 5 8 9 6 7 12 10 6 5 5 5 5 6 5 5 7 7 6 8 7 6 7 6 6 5 4 5 6 5 5 6 4 6 5 6 6 5 5 5 nan
nan 9 7 9 7 8 7 5 4 10 4 2 15 16 14 11 5 4 3 4 4 4 6 7 7 7 7 6 3 5 4 3 4 5 5 5 3 4 3 6 6 5 6 6 6 5 5 5 nan
nan 8 7 8 12 10 11 7 5 9 -0 3 13 15 12 7 5 4 3 4 5 4 3 6 7 7 6 6 5 4 3 3 4 5 4 5 5 6 6 5 6 6 7 7 6 7 9 7 nan
nan 11 7 6 6 12 12 -1 11 8 3 13 10 5 4 4 4 4 5 5 5 4 5 5 5 5 8 7 6 6 6 6 5 5 6 7 6 6 7 6 6 6 7 8 9 9 8 10 nan
nan 7 8 6 8 11 4 9 9 1 15 20 11 6 5 4 5 5 5 6 5 4 5 5 5 5 6 8 8 7 7 7 7 5 7 7 7 6 6 8 8 8 6 8 9 9 8 10 nan
nan 8 10 8 4 7 8 12 4 8 18 14 9 6 5 5 5 6 6 7 6 6 5 5 5 5 5 7 7 7 6 7 7 6 7 8 6 7 8 8 8 8 8 7 7 8 8 8 nan
nan 11 8 7 4 8 8 8 5 10 12 8 6 5 5 7 5 6 7 7 6 7 7 6 6 6 5 7 6 5 6 7 7 7 6 8 7 7 7 7 8 8 8 9 8 8 8 8 nan
nan 5 5 7 4 6 8 10 8 10 9 6 4 4 6 7 6 6 7 7 8 8 8 7 7 6 6 6 5 5 7 8 8 6 6 6 8 7 7 8 8 8 10 10 10 8 6 6 nan
nan 8 4 2 10 9 14 13 10 7 10 6 5 5 6 7 6 6 7 7 7 8 7 6 7 6 6 6 6 6 7 7 8 9 6 8 7 6 8 8 8 8 9 9 10 9 6 6 nan
nan 9 8 5 6 6 8 5 13 19 8 9 6 6 6 7 7 7 8 7 7 6 7 6 7 6 6 6 7 7 7 7 7 7 7 7 6 7 8 8 8 8 9 10 11 9 8 7 nan
nan 8 7 8 6 9 2 4 12 18 11 9 8 5 6 7 9 8 7 8 8 8 6 7 7 7 8 8 8 7 7 8 8 7 7 6 8 8 8 8 7 9 10 8 9 9 9 8 nan
nan 7 7 6 7 10 8 5 14 16 11 11 9 7 6 7 7 9 9 8 8 9 8 8 6 8 8 7 7 8 9 8 7 7 8 8 8 7 8 8 8 9 8 9 9 8 7 7 nan
nan 2 3 8 9 6 9 7 13 13 10 3 9 10 7 6 7 9 9 8 7 7 8 7 7 8 7 5 6 9 10 9 9 8 7 9 7 6 7 8 8 8 8 9 8 8 8 6 nan
nan 6 6 10 11 5 9 9 12 11 6 2 9 14 10 8 6 7 8 7 6 7 8 7 6 6 7 6 5 7 7 8 9 8 8 8 7 6 6 7 7 8 8 8 9 9 8 8 nan
nan 12 18 11 3 8 9 5 17 15 9 5 11 15 11 7 6 8 8 7 7 7 7 9 8 6 7 7 6 6 5 6 7 8 7 8 9 8 6 5 6 8 8 8 8 9 9 9 nan
nan 10 14 12 4 9 11 4 15 13 9 10 8 12 14 9 9 7 8 8 7 8 8 9 8 7 8 7 7 7 7 7 9 9 7 8 9 7 8 8 6 6 7 7 8 9 9 9 nan
nan -2 3 8 8 10 10 11 7 11 10 9 4 8 13 12 9 7 8 11 10 8 8 8 8 8 7 7 8 8 7 7 8 9 7 7 7 8 8 7 7 7 8 7 8 8 6 6 nan
nan -1 2 7 6 8 13 10 12 15 18 18 9 2 9 13 10 10 7 7 9 8 7 7 7 8 7 7 8 9 8 8 6 7 7 7 7 8 9 8 7 7 8 7 7 6 7 8 nan
nan 2 7 10 8 9 11 6 7 17 27 18 15 6 7 13 13 10 7 6 8 8 7 7 7 7 7 6 7 8 8 7 9 8 7 8 8 8 9 9 8 7 7 8 8 6 8 9 nan
nan 9 6 12 9 10 8 9 8 11 14 17 18 9 5 11 11 11 9 7 8 8 8 8 6 7 9 7 6 8 8 7 8 8 7 8 9 9 9 8 8 8 8 7 7 8 8 8 nan
nan 12 3 7 9 9 7 9 3 5 12 19 17 8 3 9 11 13 13 11 10 9 9 9 9 9 8 7 7 7 8 7 7 8 8 7 8 10 9 8 9 8 8 8 7 8 7 7 nan
nan 3 6 8 9 10 8 7 4 9 17 23 21 14 9 8 10 8 8 11 12 10 11 11 9 9 9 8 8 8 8 8 7 7 8 8 8 9 9 9 9 10 10 8 7 7 6 6 nan
nan nan nan nan nan nan nan nan nan nan nan nan nan nan nan nan nan nan nan nan nan nan nan nan nan nan nan nan nan nan nan nan nan nan nan nan nan nan nan nan nan nan nan nan nan nan nan nan nan
CAPE
67 174 180 873 265 303 160 117 103 22 13 20 36 79 100 504 80 11 290 396 409 342 299 304 417 228 268 177 501 542 456 446 990 1048 1057 1415 1530 1311 1142 1339 1599 1844 1482 1349 1471 1665 1736 1670 1780
18 86 412 603 239 127 162 168 52 40 67 100 220 344 374 252 157 174 284 509 411 557 506 104 961 370 138 94 126 236 231 108 274 964 1353 1555 1522 1482 1435 1543 1563 1562 1539 1271 1500 1506 1425 1593 1463
0 15 801 300 119 152 187 206 193 79 59 135 251 293 236 16 107 169 401 495 532 800 790 630 1226 267 155 84 70 126 187 134 420 1135 1619 1748 1402 947 687 821 1098 1528 1511 1345 1087 1234 1154 947 1195
194 421 808 193 131 88 151 234 146 113 100 41 52 70 309 168 158 373 449 467 616 691 775 1252 1321 431 377 182 128 93 129 275 649 744 1632 1707 1748 1744 1524 1254 1243 1010 795 787 988 927 647 848 1419
261 546 261 173 90 64 133 134 36 88 107 63 62 12 86 574 522 349 481 386 508 708 887 1011 1582 1183 314 375 398 425 612 368 1016 1662 1839 1768 1692 1776 1474 1146 959 880 921 963 822 740 742 1270 2258
392 315 154 139 95 103 115 92 92 131 162 43 0 4 153 465 242 363 512 503 656 857 1342 1242 1448 1718 1322 590 625 820 899 1551 1963 1987 1892 1833 2082 1692 1429 1233 1027 699 757 772 746 777 1077 1406 1669
239 256 168 114 136 101 104 138 35 39 70 49 84 9 272 251 276 393 488 779 942 1178 1465 1654 1865 1849 1894 1854 1173 1196 1513 1979 2168 2120 1927 1913 1814 1821 1738 1524 1316 1133 913 889 1089 1207 1329 1548 1543
345 239 118 120 134 156 151 152 28 1 95 113 41 8 63 220 394 439 673 1020 1215 1305 1418 1916 2170 2053 2297 1812 1969 1781 1549 1882 2213 2055 2262 2346 2290 1954 2105 2088 1922 1691 1496 1414 1467 1375 1234 1269 1470
79 268 194 116 144 198 141 57 105 93 59 165 216 86 22 286 381 491 788 1099 1394 1444 1657 1801 1853 1886 2387 2219 2154 2428 2297 2398 2283 2377 1829 1556 1553 1498 1429 1406 1399 1815 1982 2263 2187 2152 2245 2482 2045
117 140 171 169 284 240 115 47 130 15 108 207 376 412 273 330 398 376 555 943 1104 1417 1656 1946 1724 1419 2070 1881 2475 2568 2320 2235 2178 1747 1471 1618 1642 1451 582 196 700 1139 1409 1233 1646 1755 1963 1731 1549
106 119 188 366 242 226 93 69 99 70 118 136 218 384 299 358 305 323 465 640 806 1191 1215 1737 1869 1983 2117 2198 1912 2035 1575 1305 1101 1039 1355 1376 1197 826 727 970 1332 1601 1186 1351 1301 1446 1396 1621 1612
61 27 62 162 129 223 137 178 96 99 174 36 199 393 415 473 388 327 388 496 815 1225 1217 1393 1629 1935 1890 2091 1419 1412 1177 712 644 970 1167 1215 759 762 1283 1597 1799 1827 1684 1909 2026 1926 1973 1387 1196
45 23 28 116 85 152 246 157 102 180 124 101 292 360 408 495 489 345 260 289 590 903 921 1023 1437 1773 1706 1786 1522 1448 1156 896 654 1278 789 366 425 1537 1756 2152 2279 2273 2134 1762 1932 1842 1383 1071 690
20 49 41 57 31 87 164 273 125 177 181 178 255 310 393 485 433 261 244 270 444 244 287 624 1078 1296 1343 1600 1837 1861 1978 1681 1662 1438 864 875 1275 1869 1916 2230 2224 2397 2438 2758 2102 2410 1540 1646 1240
168 153 183 95 51 159 134 172 175 120 176 233 260 312 340 423 259 326 343 250 303 157 232 570 751 947 1094 1385 1667 1780 1790 1501 1192 969 1067 1421 1400 1951 1935 2145 2269 2461 2512 2639 2725 2369 1556 1486 1580
290 225 202 121 83 134 101 83 240 63 174 179 249 262 315 325 298 383 453 477 647 461 746 812 473 658 848 1079 1573 1568 1823 1469 394 209 1021 1206 1352 1767 1929 2290 2383 2832 2955 3115 3077 1960 1389 1439 1632
186 265 204 20 15 21 9 36 22 7 126 146 165 228 262 277 341 406 416 575 747 863 926 922 979 731 835 1124 1328 1484 1534 1257 404 729 548 1257 1214 1474 1994 2039 2549 3076 3333 3077 2833 2232 1638 1820 1716
77 198 62 51 26 13 6 1 65 41 91 105 142 183 212 253 343 399 430 518 601 700 851 802 1042 1008 1297 1232 1163 1033 1280 1275 658 618 244 1242 760 824 1877 2095 2320 2596 3275 3178 2641 2538 1974 1838 1661
106 85 109 24 28 10 8 0 25 64 75 86 118 178 186 252 351 397 452 516 585 663 804 700 971 1103 1262 1060 996 1081 2360 1445 931 996 980 1186 353 1746 1817 1802 1657 2518 3088 3444 2691 1929 1777 1231 1203
45 109 171 50 8 3 3 0 0 50 33 92 149 173 205 229 337 408 462 507 549 570 670 778 944 887 1183 1247 1218 1097 1266 1304 1068 1093 1751 1109 166 1430 2195 1486 1318 2186 2914 2958 3235 2504 1580 1187 1337
0 0 138 142 44 0 18 45 82 60 83 94 138 123 168 261 292 412 460 491 487 484 630 844 997 867 1041 1070 1346 1376 1582 1500 931 1057 1717 1346 274 851 2295 1263 1675 2256 2955 2464 2247 2206 1943 1656 892
0 144 149 210 65 110 107 93 19 74 36 80 111 49 105 213 266 338 458 491 509 608 642 770 901 777 985 1155 1456 1571 1147 1150 1583 1122 1533 1648 1545 1561 1770 1963 1817 2390 2497 3214 2194 1152 1565 1337 1026
293 310 248 298 197 110 124 133 89 62 54 56 79 78 86 97 184 263 396 470 480 587 643 686 810 683 899 1171 1600 1552 1422 1854 1315 1380 1835 1690 1987 1870 1135 2223 2119 2145 2058 2993 2705 911 1350 604 600
295 193 126 139 89 95 19 146 43 38 19 145 50 92 68 73 129 226 338 455 541 488 552 508 701 677 944 1097 1352 1752 1776 1450 1335 1313 1472 1365 1371 1575 1738 1626 2293 2414 1794 2573 2714 1603 1777 1927 1774
266 26 82 69 120 90 7 75 100 54 42 57 119 84 113 126 121 192 361 275 530 491 510 482 647 703 806 1138 1047 1170 1647 1551 1723 1542 1207 1331 1280 1116 1642 2015 2095 2767 2326 1889 2753 2918 2805 2265 2468
208 69 113 76 102 27 58 63 86 101 13 73 76 59 70 56 168 193 298 519 634 560 641 604 725 655 659 962 1230 1216 1284 1093 1183 1406 1160 1128 1113 1144 1460 1868 1932 2030 2132 1940 2535 2425 2260 2675 2627
240 140 115 87 0 0 1 18 187 321 78 38 96 45 100 162 169 185 268 392 606 654 739 742 831 840 760 671 1255 1383 1230 1155 1162 1432 1532 1431 1575 1212 1356 1307 1606 1803 1900 2164 2357 2172 2361 2580 2825
328 144 167 117 43 0 0 57 181 296 304 368 41 66 123 98 82 122 217 337 487 594 705 761 857 990 823 695 849 1001 1287 1399 1409 1486 1578 1588 1623 1580 1458 1538 1442 1460 1628 2008 2366 2152 2088 2257 2248
311 114 56 57 1 0 4 127 182 230 231 377 311 112 177 179 96 87 146 107 185 647 490 745 844 875 890 744 846 946 1040 1194 1395 1441 1628 1671 1768 1872 1703 1873 2050 2057 1740 1694 2221 2354 2141 2221 2117
56 153 115 78 14 0 0 0 96 144 236 284 262 330 260 278 285 315 155 135 312 460 678 991 912 885 878 798 856 947 1054 1222 1228 1504 1544 1713 1770 1946 1948 1890 1886 1958 1838 1855 2013 1787 1343 1867 1604